Погода в Пестрецово

Россия / Ярославская область     57°39′37″N   40°04′03″E
темп.,
°C
ветер,
м/с
пор.,
м/с
влажн.,
%
обл.,
%
осадки,
мм/ч
давл.,
гПа
погр.,
м
16 апреля, пт
пт1600:00+6всв7147899 0.0 1024582
03:00+5всв71485100 0.0 1025527
06:00+4всв71479100 0.0 1025490
09:00+7всв7116675 0.0 1026603
12:00+11всв795578 0.0 1026914
15:00+13всв794914 0.0 10261108
18:00+11всв710526 0.0 1026921
21:00+7всв613635 0.0 1028461
17 апреля, сб
сб1700:00+5всв6127325 0.0 1028426
03:00+4всв613776 0.0 1028357
06:00+3всв613775 0.0 1029368
09:00+7в710545 0.0 1029595
12:00+11в78380 0.0 10281037
15:00+13всв78345 0.0 10271286
18:00+11всв69454 0.0 1027703
21:00+7всв512630 0.0 1027305
18 апреля, вс
вс1800:00+5всв512710 0.0 1028280
03:00+3всв411800 0.0 1028238
06:00+3всв512830 0.0 1028291
09:00+8в610620 0.0 1028758
12:00+12всв79455 0.0 10271572
15:00+13всв79405 0.0 10261988
18:00+11всв795120 0.0 10261206
21:00+8всв51267100 0.0 1027417
19 апреля, пн
пн1900:00+6всв61180100 0.0 1028513
03:00+4всв5108395 0.0 1029444
06:00+4всв5118494 0.0 1029495
09:00+6в6965100 0.0 1029708
12:00+9в785779 0.0 10291139
15:00+9вюв785399 0.0 10291404
18:00+8в685790 0.0 10291289
21:00+5в5125781 0.0 1029420
20 апреля, вт
вт2000:00+3в61255100 0.0 1028445
03:00+3в5115892 0.0 1028470
06:00+2в51164100 0.0 1028461
09:00+5вюв7105896 0.0 1026776
12:00+5вюв61267100 0.0 1024847
15:00+9вюв81258100 0.0 10211317
18:00+6в91668100 0.0 10191026
21:00+6вюв101773100 0.3 1017936